Location: My-Spot Observatory
(42.5758°N, 83.4144°W)
Time: 07:08:45
(UTC-04:00)

Envisat - Visible Passes

Search period start: 15 October 2018 00:00
Search period end: 25 October 2018 00:00
Orbit: 764 x 766 km, 98.2° (Epoch: 15 October)

Date Brightness Start Highest point End Pass type
(mag) Time Alt. Az. Time Alt. Az. Time Alt. Az.
15 Oct 3.2 20:41:32 10° S 20:46:36 71° W 20:51:41 10° NNW visible
16 Oct 3.1 20:04:59 10° SSE 20:09:55 53° ENE 20:14:52 10° N visible
16 Oct 5.5 21:45:45 10° SW 21:49:15 19° W 21:52:46 10° NW visible
17 Oct 4.0 19:29:18 10° ESE 19:33:25 26° ENE 19:37:34 10° N visible
17 Oct 4.2 21:07:29 10° SSW 21:12:14 40° W 21:17:01 10° NNW visible
18 Oct 2.9 20:30:20 10° SSE 20:35:24 88° WSW 20:40:32 10° NNW visible
18 Oct 6.1 22:14:52 10° W 22:15:08 10° W 22:15:23 10° W visible
19 Oct 3.3 19:54:01 10° SE 19:58:47 43° ENE 20:03:34 10° N visible
19 Oct 5.1 21:33:57 10° SW 21:37:57 23° W 21:41:59 10° NW visible
20 Oct 4.2 19:18:38 10° ESE 19:22:21 21° ENE 19:26:05 10° NNE visible
20 Oct 3.8 20:56:05 10° S 21:01:00 51° W 21:05:58 10° NNW visible
21 Oct 2.9 20:19:11 10° SSE 20:24:14 74° ENE 20:29:20 10° N visible
21 Oct 5.8 22:01:25 10° WSW 22:03:48 13° W 22:06:11 10° WNW visible
22 Oct 3.6 19:43:08 10° SE 19:47:40 34° ENE 19:52:14 10° N visible
22 Oct 4.8 21:22:18 10° SSW 21:26:41 29° W 21:31:06 10° NW visible
23 Oct 4.4 19:08:06 10° E 19:11:18 17° ENE 19:14:31 10° NNE visible
23 Oct 3.3 20:44:46 10° S 20:49:47 64° WSW 20:54:51 10° NNW visible
24 Oct 3.0 20:08:07 10° SSE 20:13:05 59° ENE 20:18:05 10° N visible
24 Oct 5.6 21:49:15 10° SW 21:52:29 17° W 21:55:44 10° NW visible
